STARLINK-4729, 53804

Orbit data source: Space-Track

STARLINK-4729, 53804 is a payload satellite owned by SpaceX/Seattle (US) in LEO that was launched on Sun, 11 Sep 2022 UTC via an FALCON 9 launch vehicle from the Air Force Eastern Test Range (AFETR). Payloads include a variety of satellites, spacecraft, and rockets equipped with specific instruments for various scientific and technological missions. These include communications satellites like Starlink; space stations such as the ISS; scientific satellites like the Hubble; Earth observation satellites from companies like Planet Labs, Umbra, and HawkEye 360; GPS; miniature CubeSats for education and research; and military/defense satellites.

Loading next visibility...
STARLINK-4729 details
Identifier
53804, 2022-111AH
Orbit
LEO
Last TLE update1 day ago
Origin
Flag of USSpaceX/Seattle (US)
ManufacturerSpaceX/Seattle
MissionOperational Commercial Communications
Bus & MotorSTARLINK, Unknown motor
Mass305 kg wet, ~290 kg dry
Launch date (UTC)
2022-09-11 (2 years ago)
Launch vehicle
FALCON 9
Launch site
Air Force Eastern Test Range (AFETR)
Object type
Payload
Rocket body
Debris
Shape & HBRBox + 1 Pan, 8.86 m
Radar Cross Section13.562 m², Large (>1 m²)

Expand to show TLE details & history

TLE from 1 day ago
0 STARLINK-4729
1 53804U 22111AH  24347.89393014 -.00000320  00000-0 -20137-5 0  9999
2 53804  53.2169 127.0919 0001196  88.0371 272.0758 15.08839406125688
Epoch: 2024-12-12T21:27Z
Definitive object data (Epoch: 2024-12-12T21:27:15.564Z)
Latitude-0.00001°
Longitude83.20932°
Altitude540.613 km
Speed7.593 km/s
True Right ascension08h 28m 22s
True Declination0° 00' 00"
Sunlit
Object was in full shadow at TLE epoch
Visualization TLE readout
Latitude-36.94316°
Longitude-67.44424°
Altitude552.275 km
Speed7.585 km/s
Apparent Right ascension02h 32m 42s
Apparent Declination-74° 41' 43"
Sunlit
Object is in daylight
Visualization observer readout
Local Sidereal Time20:50:23
Azimuth160.732° S
Elevation-37.107°
Doppler factor1
Orbital elements
Apogee altitude540.818 km
Perigee altitude539.163 km
Semi-major axis6,918.127 km
Eccentricity0.0001196
Inclination53.2169°
RAAN127.0919°
Arg. of periapsis88.0371°
True anomaly272.0621°
Mean anomaly272.0758°
Eccentric anomaly272.06895°
Mean motion3.7719 °/min
BSTAR-0.0000020137
Orbital period95.44 mins
Loading maneuver chart data...
Loading historical data...
Loading historical data...
Loading historical data...
Loading historical data...
Loading historical data...
Loading historical data...
Loading historical data...

STARLINK-4729 Visibility forecast

Observer location: undefined°, undefined

Span
Click to sort rows by Start time (UTC) header in descending order
Start Az.
Max El. time (UTC)
Max El. Az.
Max El.
End time (UTC)
End Az.
7 mins2024-12-14 11:46:30.287Z222.19° SW2024-12-14 11:50:30.287Z95.159° ESE43.208°2024-12-14 11:53:30.287Z53.887° ENE
4 mins2024-12-14 13:28:30.287Z306.476° NW2024-12-14 13:29:30.287Z326.966° NNW20.851°2024-12-14 13:32:30.287Z23.05° NE
4 mins2024-12-14 16:49:30.287Z349.62° N2024-12-14 16:51:30.287Z26.255° NE17.231°2024-12-14 16:53:30.287Z58.633° ENE
6 mins2024-12-14 18:28:30.287Z317.698° NNW2024-12-14 18:31:30.287Z81.799° E41.709°2024-12-14 18:34:30.287Z121.476° SE
|